Regional Weather Roundup
Issued by NWS

Home | Current Version | Previous Version | Graphics & Text | Print | Product List | Glossary On
Versions: 1 2 3 4 5 6 7 8 9 10 11 12 13 14 15 16 17 18 19 20 21 22 23 24 25 26 27 28 29 30 31 32 33 34 35 36 37 38 39 40 41 42 43 44 45 46 47 48 49 50
000
ASUS43 KMKX 221721
RWRWI

WISCONSIN REGIONAL WEATHER ROUNDUP
NATIONAL WEATHER SERVICE MILWAUKEE/SULLIVAN WI
1200 PM CDT FRI AUG 22 2014

NOTE: "FAIR" INDICATES FEW OR NO CLOUDS BELOW 12,000 FEET WITH NO
SIGNIFICANT WEATHER AND/OR OBSTRUCTIONS TO VISIBILITY.

WIZ001-002-006>008-014>016-023>028-221800-
NORTHWEST WISCONSIN

CITY           SKY/WX    TMP DP  RH WIND       PRES   REMARKS
SUPERIOR ARPT  CLOUDY    61  61  99 E8        30.00R FOG
ASHLAND        CLOUDY    65  63  93 N5        29.99R FOG
HAYWARD        CLOUDY    71  69  93 NE8       29.97S FOG
SIREN          CLOUDY    67  65  91 N3        29.98R
RICE LAKE      CLOUDY    74  71  89 CALM      29.98R
LADYSMITH      CLOUDY    73  71  94 CALM      29.98R FOG
EAU CLAIRE     PTSUNNY   78  72  81 S7        29.94R HX  80
MENOMONIE      MOSUNNY   82  70  67 W7        29.95R HX  85
NEW RICHMOND   CLOUDY    73  69  88 N5        29.97S
OSCEOLA        CLOUDY    70  69  96 N5        29.99S
$$

WIZ003>005-009-010-017-018-221800-
NORTH CENTRAL WISCONSIN

CITY           SKY/WX    TMP DP  RH WIND       PRES   REMARKS
WOODRUFF       LGT RAIN  72  70  93 SE5       29.99R
RHINELANDER    CLOUDY    68  67  96 VRB3      30.00R FOG
EAGLE RIVER    CLOUDY    70  67  91 CALM      30.00R
LAND O LAKES   CLOUDY    70  67  90 E3        30.01R
PHILLIPS       CLOUDY    70  68  95 CALM      29.97S FOG
TOMAHAWK       CLOUDY    70  67  90 CALM      29.98S
MEDFORD        CLOUDY    70  70 100 SE5       29.98R FOG
MERRILL        CLOUDY    69  69 100 E3        29.98R FOG
$$

WIZ029-030-035-036-043>047-221800-
CENTRAL WISCONSIN

CITY           SKY/WX    TMP DP  RH WIND       PRES   REMARKS
WAUSAU         CLOUDY    72  69  90 S7        29.96R FOG
MOSINEE        CLOUDY    72  72 100 SE3       29.98R FOG
MARSHFIELD     CLOUDY    75  72  90 S7        29.96R FOG
STEVENS POINT  CLOUDY    75  71  86 SE6       29.97S
WAUPACA        CLOUDY    78  74  86 SE5       29.96F HAZE    HX  81
WAUTOMA        MOSUNNY   84  75  74 VRB6      29.95F HX  91
WISC RAPIDS    CLOUDY    80  73  79 SW7       29.97R HX  84
CAMP DOUGLAS   CLOUDY    79  79 100 S5        29.96R HX  83
$$

WIZ011>013-019>022-031-037>040-048>050-221800-
NORTHEAST WISCONSIN

CITY           SKY/WX    TMP DP  RH WIND       PRES   REMARKS
ANTIGO         CLOUDY    67  67 100 SE8       30.00R
STURGEON BAY   CLOUDY    72  68  88 E8        30.00R
GREEN BAY      CLOUDY    76  72  87 S6        29.97R FOG
MANITOWOC      CLOUDY    73  72  94 SE5       29.98S
APPLETON       PTSUNNY   77  72  83 VRB5      29.97S FOG
CLINTONVILLE   CLOUDY    77  70  78 E6        29.97F HAZE
OSHKOSH        MOSUNNY   80  73  79 S6        29.96S HX  84
$$

WIZ032>034-041-042-053>061-221800-
SOUTHWEST WISCONSIN

CITY           SKY/WX    TMP DP  RH WIND       PRES   REMARKS
LA CROSSE      CLOUDY    79  73  82 N5        29.94R HX  82
SPARTA         CLOUDY    77  73  85 W3        29.96R FOG
VIROQUA        CLOUDY    79  78  97 S5        29.97S HX  82
BOSCOBEL       PTSUNNY   85  75  72 CALM      29.94F HX  93
PRAIRIE DU CHI MOSUNNY   84  74  71 SE3       29.93F HX  90
PLATTEVILLE    FAIR      81  76  84 SE8       29.98R HX  87
$$

WIZ056-057-062-063-064-067-068-221800-
SOUTH CENTRAL WISCONSIN

CITY           SKY/WX    TMP DP  RH WIND       PRES   REMARKS
BARABOO/DELLS  MOSUNNY   85  70  60 S6        29.95S HX  90
LONE ROCK      PTSUNNY   88  75  65 SW5       29.94S HX  97
WATERTOWN      PTSUNNY   80  76  86 CALM      29.96S HX  85
MADISON        MOSUNNY   81  74  79 S6        29.95S HX  86
MIDDLETON      PTSUNNY   83  76  80 SE3       29.96F HX  91
MONROE         CLOUDY    79  73  83 SW6       29.97R HX  82
JANESVILLE     CLOUDY    81  75  83 S5        29.95S HX  86
$$

WIZ051-052-058>065-066-070>072-221800-
SOUTHEAST WISCONSIN

CITY           SKY/WX    TMP DP  RH WIND       PRES   REMARKS
MILWAUKEE      CLOUDY    74  70  87 E5        29.96F
WAUKESHA       MOSUNNY   81  72  74 CALM      29.97S HX  84
MILWAUKEE/TIMM PTSUNNY   77  70  78 NE6       29.97F
RACINE         CLOUDY    76  71  85 SE7       29.98S
BURLINGTON     CLOUDY    78  73  86 CALM      29.96S HX  80
KENOSHA        CLOUDY    77  73  87 E6        29.97S
FOND DU LAC    MOSUNNY   83  71  67 S8        29.96S HX  87
SHEBOYGAN      CLOUDY    78  71  79 S6        29.97R HX  80
WEST BEND      CLOUDY    73  70  88 SE5       29.97F FOG
JUNEAU         PTSUNNY   81  49  33 S5        29.97S HX  80
$$

LSZ147-162-221800-
LAKE SUPERIOR

STATION/POSITION TIME  TEMP    WIND        PRES    WAVE
                       AIR SEA DIR/SP/G            HT/PER
                 (UTC) (F)     (DEG/KT/KT) (MB)    (FT/S)
W MID LAKE BUOY  1650   57 58   40/ 10/ 14 1015.3R   2/ 4
DEVILS ISLAND    1700   59      50/ 11/ 12 1015.6R
PORT WING        1600   59      40/  9/ 10 1015.2S
SAXON HARBOR     1600   65        CALM     1014.9R
$$

LMZ867-665-643>646-221800-
LAKE MICHIGAN

STATION/POSITION TIME  TEMP    WIND        PRES    WAVE
                       AIR SEA DIR/SP/G            HT/PER
                 (UTC) (F)     (DEG/KT/KT) (MB)    (FT/S)
N MID LAKE BUOY  1650   67 65  200/  6/  6 1015.1R   0
NORTHPORT PIER   1600   65     110/  3/  4 1015.2S
SISTER BAY       1641   77     160/  8/ 10   N/A
KEWAUNEE LAKESHO 1700   67     110/  2/  3 1014.7R
SHEBOYGAN LAKESH 1700   69 67  180/  8/  8 1015.1R
ATWATER BUOY     1700   70     160/  4/  4 1016.0S
MILWAUKEE LAKESH 1700   70     120/  2/  3   N/A
S MID LAKE BUOY  1650   71 69  190/  6/  6 1014.5F   0
KENOSHA   LAKESH 1700   72     110/  4/  4 1014.6S
$$

TC  - TEMPERATURE IN CELSIUS
VSB - VISIBILITY IN STATUTE MILES
WCI - WIND CHILL INDEX
HX  - HEAT INDEX




USA.gov is the U.S. government's official web portal to all federal, state and local government web resources and services.